| time (UTC) | temp F | wind direction | speed MPH | gust MPH | rain 1hr in | rain 24hr in | rain mn in | humidity % | barometer mb |
| 20260506062408 | 65 | 112 | 0.0 | 0.0 | 0.00 | 0.00 | 0.00 | 82 | 1011.0 |
| 20260506061909 | 65 | 112 | 2.0 | 2.0 | 0.00 | 0.00 | 0.00 | 82 | 1011.0 |
| 20260506061408 | 65 | 112 | 3.0 | 3.0 | 0.00 | 0.00 | 0.00 | 82 | 1011.0 |
| 20260506060908 | 64 | 90 | 2.0 | 2.0 | 0.00 | 0.00 | 0.00 | 83 | 1011.0 |
| 20260506060409 | 64 | 68 | 0.0 | 0.0 | 0.00 | 0.00 | 0.00 | 84 | 1011.0 |
| 20260506051409 | 63 | 68 | 2.0 | 2.0 | 0.00 | 0.00 | 0.00 | 87 | 1010.0 |
| 20260506050909 | 62 | 68 | 3.0 | 3.0 | 0.00 | 0.00 | 0.00 | 87 | 1010.0 |
| 20260506050409 | 62 | 45 | 4.0 | 4.0 | 0.00 | 0.00 | 0.00 | 88 | 1010.0 |
| 20260506044908 | 62 | 45 | 3.0 | 3.0 | 0.00 | 0.00 | 0.00 | 88 | 1010.0 |
| 20260506044408 | 62 | 45 | 3.0 | 3.0 | 0.00 | 0.00 | 0.00 | 89 | 1010.0 |
| 20260506043908 | 61 | 45 | 3.0 | 3.0 | 0.00 | 0.00 | 0.00 | 90 | 1010.0 |
| 20260506043408 | 61 | 22 | 3.0 | 4.0 | 0.00 | 0.00 | 0.00 | 91 | 1010.0 |
| 20260506042910 | 60 | 22 | 1.0 | 1.0 | 0.00 | 0.00 | 0.00 | 91 | 1010.0 |
| 20260506042410 | 60 | 45 | 2.0 | 2.0 | 0.00 | 0.00 | 0.00 | 91 | 1010.0 |
| 20260506041909 | 60 | 0 | 0.0 | 0.0 | 0.00 | 0.00 | 0.00 | 91 | 1010.0 |
| 20260506041408 | 60 | 338 | 1.0 | 1.0 | 0.00 | 0.00 | 0.00 | 91 | 1010.0 |
| 20260506040910 | 60 | 338 | 0.0 | 0.0 | 0.00 | 0.00 | 0.00 | 91 | 1010.0 |
| 20260506040409 | 60 | 22 | 3.0 | 3.0 | 0.00 | 0.00 | 0.00 | 91 | 1010.0 |
| 20260506035908 | 60 | 0 | 1.0 | 1.0 | 0.00 | 0.00 | 0.00 | 91 | 1010.0 |
| 20260506035409 | 60 | 315 | 2.0 | 2.0 | 0.00 | 0.00 | 0.00 | 91 | 1010.0 |
| 20260506034909 | 60 | 68 | 0.0 | 0.0 | 0.00 | 0.00 | 0.00 | 91 | 1010.0 |
| 20260506034408 | 60 | 68 | 0.0 | 0.0 | 0.00 | 0.00 | 0.00 | 91 | 1010.0 |
| 20260506033908 | 60 | 68 | 0.0 | 0.0 | 0.00 | 0.00 | 0.00 | 91 | 1010.0 |
| 20260506033409 | 60 | 68 | 0.0 | 0.0 | 0.00 | 0.00 | 0.00 | 91 | 1010.0 |
| 20260506032909 | 60 | 45 | 1.0 | 1.0 | 0.00 | 0.00 | 0.00 | 91 | 1010.0 |
| 20260506032410 | 60 | 45 | 0.0 | 0.0 | 0.00 | 0.00 | 0.00 | 91 | 1010.0 |
| 20260506031908 | 60 | 68 | 0.0 | 0.0 | 0.00 | 0.00 | 0.00 | 91 | 1010.0 |
| 20260506031408 | 60 | 68 | 0.0 | 0.0 | 0.00 | 0.00 | 0.00 | 91 | 1010.0 |
| 20260506030909 | 60 | 45 | 0.0 | 0.0 | 0.00 | 0.00 | 0.00 | 91 | 1010.0 |
| 20260506030409 | 60 | 45 | 1.0 | 1.0 | 0.00 | 0.00 | 0.00 | 91 | 1010.0 |
| 20260506025908 | 60 | 22 | 2.0 | 2.0 | 0.00 | 0.00 | 0.00 | 91 | 1010.0 |
| 20260506025409 | 60 | 45 | 2.0 | 2.0 | 0.00 | 0.00 | 0.00 | 91 | 1010.0 |
| 20260506024909 | 60 | 68 | 2.0 | 2.0 | 0.00 | 0.00 | 0.00 | 91 | 1010.0 |
| 20260506024409 | 61 | 22 | 4.0 | 4.0 | 0.00 | 0.00 | 0.00 | 91 | 1010.0 |
| 20260506023909 | 61 | 45 | 3.0 | 3.0 | 0.00 | 0.00 | 0.00 | 91 | 1010.0 |
| 20260506023408 | 61 | 45 | 0.0 | 0.0 | 0.00 | 0.00 | 0.00 | 91 | 1010.0 |
| 20260506022908 | 61 | 68 | 2.0 | 2.0 | 0.00 | 0.00 | 0.00 | 91 | 1010.0 |
| 20260506022409 | 61 | 68 | 2.0 | 2.0 | 0.00 | 0.00 | 0.00 | 90 | 1010.0 |
| 20260506021909 | 61 | 45 | 0.0 | 0.0 | 0.00 | 0.00 | 0.00 | 90 | 1010.0 |
| 20260506021409 | 61 | 45 | 2.0 | 2.0 | 0.00 | 0.00 | 0.00 | 90 | 1010.0 |
| 20260506020909 | 61 | 45 | 0.0 | 0.0 | 0.00 | 0.00 | 0.00 | 90 | 1010.0 |
| 20260506020409 | 61 | 22 | 2.0 | 2.0 | 0.00 | 0.00 | 0.00 | 90 | 1010.0 |
| 20260506015909 | 61 | 68 | 1.0 | 1.0 | 0.00 | 0.00 | 0.00 | 90 | 1010.0 |
| 20260506015408 | 61 | 45 | 2.0 | 2.0 | 0.00 | 0.00 | 0.00 | 90 | 1010.0 |
| 20260506014908 | 61 | 45 | 3.0 | 4.0 | 0.00 | 0.00 | 0.00 | 90 | 1010.0 |
| 20260506014409 | 61 | 68 | 2.0 | 2.0 | 0.00 | 0.00 | 0.00 | 90 | 1010.0 |
| 20260506013908 | 61 | 22 | 3.0 | 3.0 | 0.00 | 0.00 | 0.00 | 90 | 1010.0 |
| 20260506013408 | 61 | 45 | 2.0 | 2.0 | 0.00 | 0.00 | 0.00 | 90 | 1010.0 |
| 20260506012908 | 61 | 22 | 2.0 | 2.0 | 0.00 | 0.00 | 0.00 | 90 | 1010.0 |
| 20260506012408 | 61 | 45 | 2.0 | 2.0 | 0.00 | 0.00 | 0.00 | 90 | 1010.0 |
| 20260506011908 | 61 | 45 | 0.0 | 0.0 | 0.00 | 0.00 | 0.00 | 90 | 1010.0 |
| 20260506011409 | 62 | 45 | 2.0 | 2.0 | 0.00 | 0.00 | 0.00 | 90 | 1010.0 |
| 20260506010908 | 62 | 45 | 1.0 | 1.0 | 0.00 | 0.00 | 0.00 | 89 | 1010.0 |
| 20260506010414 | 62 | 45 | 4.0 | 5.0 | 0.00 | 0.00 | 0.00 | 89 | 1010.0 |
| 20260506005909 | 62 | 45 | 1.0 | 1.0 | 0.00 | 0.00 | 0.00 | 89 | 1010.0 |
| 20260506005408 | 62 | 68 | 4.0 | 5.0 | 0.00 | 0.00 | 0.00 | 89 | 1010.0 |
| 20260506004908 | 62 | 45 | 2.0 | 2.0 | 0.00 | 0.00 | 0.00 | 88 | 1010.0 |
| 20260506004408 | 62 | 45 | 2.0 | 2.0 | 0.00 | 0.00 | 0.00 | 88 | 1010.0 |
| 20260506003909 | 62 | 68 | 0.0 | 0.0 | 0.00 | 0.00 | 0.00 | 88 | 1010.0 |
| 20260506003409 | 62 | 22 | 2.0 | 2.0 | 0.00 | 0.00 | 0.00 | 88 | 1010.0 |
| 20260506002908 | 62 | 292 | 0.0 | 0.0 | 0.00 | 0.00 | 0.00 | 87 | 1010.0 |
| 20260506002409 | 62 | 292 | 0.0 | 0.0 | 0.00 | 0.00 | 0.00 | 87 | 1010.0 |
| 20260506001908 | 62 | 292 | 0.0 | 0.0 | 0.00 | 0.00 | 0.00 | 87 | 1010.0 |
| 20260506001409 | 62 | 292 | 0.0 | 0.0 | 0.00 | 0.00 | 0.00 | 87 | 1011.0 |
| 20260506000910 | 62 | 292 | 0.0 | 0.0 | 0.00 | 0.00 | 0.00 | 87 | 1011.0 |
| 20260506000410 | 62 | 292 | 0.0 | 0.0 | 0.00 | 0.00 | 0.00 | 87 | 1011.0 |
| 20260505235908 | 62 | 292 | 0.0 | 0.0 | 0.00 | 0.00 | 0.00 | 87 | 1011.0 |
| 20260505235409 | 62 | 292 | 0.0 | 0.0 | 0.00 | 0.00 | 0.00 | 87 | 1011.0 |
| 20260505234908 | 62 | 292 | 0.0 | 0.0 | 0.00 | 0.00 | 0.00 | 87 | 1011.0 |
| 20260505234408 | 62 | 292 | 0.0 | 0.0 | 0.00 | 0.00 | 0.00 | 87 | 1011.0 |
| 20260505233909 | 62 | 292 | 0.0 | 0.0 | 0.00 | 0.00 | 0.00 | 87 | 1011.0 |
| 20260505233408 | 62 | 292 | 0.0 | 0.0 | 0.00 | 0.00 | 0.00 | 87 | 1011.0 |
| 20260505232908 | 62 | 292 | 0.0 | 0.0 | 0.00 | 0.00 | 0.00 | 87 | 1011.0 |
| 20260505232408 | 62 | 292 | 0.0 | 0.0 | 0.00 | 0.00 | 0.00 | 87 | 1011.0 |
| 20260505231908 | 62 | 292 | 0.0 | 0.0 | 0.00 | 0.00 | 0.00 | 87 | 1011.0 |
| 20260505231408 | 62 | 292 | 0.0 | 0.0 | 0.00 | 0.00 | 0.00 | 87 | 1011.0 |
| 20260505230908 | 62 | 292 | 0.0 | 0.0 | 0.00 | 0.00 | 0.00 | 87 | 1011.0 |
| 20260505230408 | 62 | 292 | 2.0 | 2.0 | 0.00 | 0.00 | 0.00 | 87 | 1011.0 |
| 20260505225908 | 62 | 248 | 0.0 | 0.0 | 0.00 | 0.00 | 0.00 | 87 | 1011.0 |
| 20260505225408 | 62 | 248 | 0.0 | 0.0 | 0.00 | 0.00 | 0.00 | 87 | 1011.0 |
| 20260505224909 | 62 | 248 | 0.0 | 0.0 | 0.00 | 0.00 | 0.00 | 87 | 1011.0 |
| 20260505224408 | 62 | 248 | 2.0 | 2.0 | 0.00 | 0.00 | 0.00 | 87 | 1011.0 |
| 20260505223908 | 62 | 248 | 2.0 | 2.0 | 0.00 | 0.00 | 0.00 | 87 | 1011.0 |
| 20260505223409 | 62 | 248 | 1.0 | 1.0 | 0.00 | 0.00 | 0.00 | 86 | 1011.0 |
| 20260505222909 | 62 | 248 | 3.0 | 3.0 | 0.00 | 0.00 | 0.00 | 86 | 1011.0 |
| 20260505222408 | 62 | 248 | 2.0 | 2.0 | 0.00 | 0.00 | 0.00 | 86 | 1011.0 |
| 20260505221909 | 62 | 225 | 3.0 | 3.0 | 0.00 | 0.00 | 0.00 | 86 | 1011.0 |
| 20260505221408 | 62 | 248 | 3.0 | 3.0 | 0.00 | 0.00 | 0.00 | 86 | 1011.0 |
| 20260505220909 | 62 | 248 | 2.0 | 2.0 | 0.00 | 0.00 | 0.00 | 86 | 1011.0 |
| 20260505220409 | 63 | 248 | 1.0 | 1.0 | 0.00 | 0.00 | 0.00 | 86 | 1011.0 |
| 20260505215908 | 63 | 248 | 2.0 | 2.0 | 0.00 | 0.00 | 0.00 | 86 | 1011.0 |
| 20260505215409 | 62 | 248 | 2.0 | 2.0 | 0.00 | 0.00 | 0.00 | 86 | 1011.0 |
| 20260505214909 | 62 | 248 | 0.0 | 0.0 | 0.00 | 0.00 | 0.00 | 86 | 1011.0 |
| 20260505214409 | 62 | 248 | 2.0 | 2.0 | 0.00 | 0.00 | 0.00 | 86 | 1011.0 |
| 20260505213909 | 62 | 248 | 2.0 | 2.0 | 0.00 | 0.00 | 0.00 | 86 | 1011.0 |
| 20260505213409 | 62 | 248 | 5.0 | 5.0 | 0.00 | 0.00 | 0.00 | 86 | 1011.0 |
| 20260505212909 | 62 | 225 | 0.0 | 0.0 | 0.00 | 0.00 | 0.00 | 86 | 1011.0 |
| 20260505212408 | 62 | 248 | 2.0 | 2.0 | 0.00 | 0.00 | 0.00 | 86 | 1011.0 |
| 20260505211908 | 62 | 248 | 2.0 | 2.0 | 0.00 | 0.00 | 0.00 | 86 | 1011.0 |
| 20260505211408 | 62 | 270 | 0.0 | 0.0 | 0.00 | 0.00 | 0.00 | 87 | 1011.0 |
| 20260505210912 | 62 | 248 | 3.0 | 3.0 | 0.00 | 0.00 | 0.00 | 87 | 1011.0 |
| 20260505210409 | 62 | 248 | 2.0 | 2.0 | 0.00 | 0.00 | 0.00 | 87 | 1011.0 |
| 20260505205909 | 62 | 248 | 4.0 | 4.0 | 0.00 | 0.00 | 0.00 | 87 | 1011.0 |
| 20260505205409 | 62 | 270 | 3.0 | 4.0 | 0.00 | 0.00 | 0.00 | 86 | 1011.0 |
| 20260505204909 | 63 | 248 | 6.0 | 6.0 | 0.00 | 0.00 | 0.00 | 86 | 1011.0 |
| 20260505204409 | 63 | 248 | 5.0 | 5.0 | 0.00 | 0.00 | 0.00 | 86 | 1011.0 |
| 20260505203909 | 63 | 248 | 3.0 | 4.0 | 0.00 | 0.00 | 0.00 | 86 | 1011.0 |
| 20260505203408 | 63 | 248 | 3.0 | 3.0 | 0.00 | 0.00 | 0.00 | 86 | 1011.0 |
| 20260505202908 | 63 | 248 | 3.0 | 3.0 | 0.00 | 0.00 | 0.00 | 86 | 1011.0 |
| 20260505202409 | 63 | 270 | 3.0 | 3.0 | 0.00 | 0.00 | 0.00 | 86 | 1011.0 |
| 20260505201909 | 63 | 248 | 2.0 | 2.0 | 0.00 | 0.00 | 0.00 | 86 | 1011.0 |
| 20260505201412 | 63 | 270 | 3.0 | 4.0 | 0.00 | 0.00 | 0.00 | 86 | 1012.0 |
| 20260505200909 | 63 | 248 | 4.0 | 5.0 | 0.00 | 0.00 | 0.00 | 86 | 1012.0 |
| 20260505200409 | 63 | 248 | 3.0 | 3.0 | 0.00 | 0.00 | 0.00 | 86 | 1012.0 |
| 20260505195911 | 63 | 292 | 6.0 | 6.0 | 0.00 | 0.00 | 0.00 | 87 | 1011.0 |
| 20260505195412 | 63 | 248 | 2.0 | 2.0 | 0.00 | 0.00 | 0.00 | 87 | 1011.0 |
| 20260505194909 | 63 | 248 | 3.0 | 3.0 | 0.00 | 0.00 | 0.00 | 87 | 1011.0 |
| 20260505194410 | 63 | 248 | 2.0 | 2.0 | 0.00 | 0.00 | 0.00 | 87 | 1011.0 |
| 20260505193909 | 63 | 248 | 4.0 | 5.0 | 0.00 | 0.00 | 0.00 | 87 | 1011.0 |
| 20260505193408 | 63 | 248 | 1.0 | 1.0 | 0.00 | 0.00 | 0.00 | 87 | 1011.0 |
| 20260505192909 | 63 | 248 | 3.0 | 3.0 | 0.00 | 0.00 | 0.00 | 87 | 1011.0 |
| 20260505192408 | 63 | 248 | 2.0 | 2.0 | 0.00 | 0.00 | 0.00 | 87 | 1011.0 |
| 20260505191908 | 63 | 248 | 3.0 | 3.0 | 0.00 | 0.00 | 0.00 | 87 | 1011.0 |
| 20260505191408 | 63 | 248 | 0.0 | 0.0 | 0.00 | 0.00 | 0.00 | 87 | 1011.0 |
| 20260505190908 | 63 | 225 | 4.0 | 5.0 | 0.00 | 0.00 | 0.00 | 87 | 1011.0 |
| 20260505190408 | 63 | 248 | 3.0 | 3.0 | 0.00 | 0.00 | 0.00 | 86 | 1011.0 |
| 20260505185909 | 63 | 225 | 4.0 | 5.0 | 0.00 | 0.00 | 0.00 | 86 | 1011.0 |
| 20260505185409 | 63 | 248 | 3.0 | 4.0 | 0.00 | 0.00 | 0.00 | 86 | 1011.0 |
| 20260505184908 | 63 | 248 | 2.0 | 2.0 | 0.00 | 0.00 | 0.00 | 86 | 1011.0 |
| 20260505184409 | 63 | 225 | 5.0 | 5.0 | 0.00 | 0.00 | 0.00 | 86 | 1011.0 |
| 20260505183909 | 63 | 248 | 3.0 | 4.0 | 0.00 | 0.00 | 0.00 | 85 | 1011.0 |
| 20260505183408 | 63 | 248 | 4.0 | 5.0 | 0.00 | 0.00 | 0.00 | 85 | 1011.0 |
| 20260505182909 | 63 | 248 | 7.0 | 8.0 | 0.00 | 0.00 | 0.00 | 85 | 1011.0 |
| 20260505182408 | 63 | 248 | 2.0 | 2.0 | 0.00 | 0.00 | 0.00 | 85 | 1011.0 |
| 20260505181908 | 63 | 292 | 6.0 | 6.0 | 0.00 | 0.00 | 0.00 | 85 | 1011.0 |
| 20260505181408 | 63 | 248 | 5.0 | 5.0 | 0.00 | 0.00 | 0.00 | 85 | 1010.0 |
| 20260505180909 | 63 | 248 | 4.0 | 5.0 | 0.00 | 0.00 | 0.00 | 85 | 1010.0 |
| 20260505180414 | 63 | 292 | 5.0 | 5.0 | 0.00 | 0.00 | 0.00 | 85 | 1010.0 |
| 20260505175909 | 63 | 248 | 5.0 | 5.0 | 0.00 | 0.00 | 0.00 | 85 | 1010.0 |
| 20260505175409 | 64 | 248 | 5.0 | 5.0 | 0.00 | 0.00 | 0.00 | 85 | 1010.0 |
| 20260505174908 | 64 | 248 | 6.0 | 6.0 | 0.00 | 0.00 | 0.00 | 84 | 1010.0 |
| 20260505174411 | 64 | 225 | 8.0 | 9.0 | 0.00 | 0.00 | 0.00 | 84 | 1010.0 |
| 20260505173910 | 64 | 248 | 5.0 | 6.0 | 0.00 | 0.00 | 0.00 | 84 | 1010.0 |
| 20260505173411 | 64 | 248 | 6.0 | 6.0 | 0.00 | 0.00 | 0.00 | 84 | 1010.0 |
| 20260505172908 | 64 | 225 | 8.0 | 8.0 | 0.00 | 0.00 | 0.00 | 84 | 1010.0 |
| 20260505172408 | 64 | 248 | 3.0 | 3.0 | 0.00 | 0.00 | 0.00 | 84 | 1010.0 |
| 20260505171909 | 64 | 292 | 8.0 | 9.0 | 0.00 | 0.00 | 0.00 | 83 | 1010.0 |
| 20260505171409 | 64 | 202 | 8.0 | 8.0 | 0.00 | 0.00 | 0.00 | 83 | 1010.0 |
| 20260505170909 | 64 | 248 | 9.0 | 10.0 | 0.00 | 0.00 | 0.00 | 83 | 1010.0 |
| 20260505170409 | 64 | 248 | 5.0 | 6.0 | 0.00 | 0.00 | 0.00 | 83 | 1010.0 |
| 20260505165909 | 64 | 248 | 6.0 | 6.0 | 0.00 | 0.00 | 0.00 | 83 | 1010.0 |
| 20260505165410 | 65 | 202 | 8.0 | 8.0 | 0.00 | 0.00 | 0.00 | 82 | 1010.0 |
| 20260505164911 | 65 | 248 | 8.0 | 9.0 | 0.00 | 0.00 | 0.00 | 82 | 1010.0 |
| 20260505164409 | 65 | 248 | 7.0 | 8.0 | 0.00 | 0.00 | 0.00 | 82 | 1010.0 |
| 20260505163911 | 65 | 292 | 5.0 | 5.0 | 0.00 | 0.00 | 0.00 | 82 | 1010.0 |
| 20260505163410 | 66 | 248 | 9.0 | 9.0 | 0.00 | 0.00 | 0.00 | 82 | 1010.0 |
| 20260505162909 | 66 | 248 | 4.0 | 5.0 | 0.00 | 0.00 | 0.00 | 81 | 1010.0 |
| 20260505162408 | 66 | 248 | 9.0 | 10.0 | 0.00 | 0.00 | 0.00 | 80 | 1010.0 |
| 20260505161909 | 66 | 248 | 7.0 | 8.0 | 0.00 | 0.00 | 0.00 | 80 | 1010.0 |
| 20260505161409 | 65 | 202 | 11.0 | 13.0 | 0.00 | 0.00 | 0.00 | 81 | 1010.0 |
| 20260505160908 | 65 | 202 | 8.0 | 9.0 | 0.00 | 0.00 | 0.00 | 82 | 1010.0 |
| 20260505160409 | 65 | 248 | 9.0 | 10.0 | 0.00 | 0.00 | 0.00 | 82 | 1010.0 |
| 20260505152909 | 67 | 248 | 12.0 | 16.0 | 0.00 | 0.00 | 0.00 | 78 | 1010.0 |
| 20260505152409 | 67 | 315 | 10.0 | 11.0 | 0.00 | 0.00 | 0.00 | 77 | 1010.0 |
| 20260505151909 | 67 | 248 | 6.0 | 6.0 | 0.00 | 0.00 | 0.00 | 79 | 1010.0 |
| 20260505151409 | 67 | 248 | 10.0 | 10.0 | 0.00 | 0.00 | 0.00 | 79 | 1011.0 |
| 20260505150908 | 67 | 248 | 12.0 | 14.0 | 0.00 | 0.00 | 0.00 | 79 | 1011.0 |
| 20260505150409 | 67 | 270 | 10.0 | 14.0 | 0.00 | 0.00 | 0.00 | 80 | 1011.0 |
| 20260505140411 | 68 | 248 | 11.0 | 13.0 | 0.00 | 0.00 | 0.00 | 78 | 1011.0 |
| 20260505124908 | 68 | 202 | 9.0 | 10.0 | 0.00 | 0.00 | 0.00 | 77 | 1011.0 |
| 20260505124409 | 68 | 248 | 10.0 | 12.0 | 0.00 | 0.00 | 0.00 | 76 | 1011.0 |
| 20260505123909 | 68 | 270 | 11.0 | 12.0 | 0.00 | 0.00 | 0.00 | 77 | 1011.0 |
| 20260505123409 | 68 | 248 | 9.0 | 10.0 | 0.00 | 0.00 | 0.00 | 77 | 1011.0 |
| 20260505122909 | 68 | 270 | 13.0 | 15.0 | 0.00 | 0.00 | 0.00 | 77 | 1011.0 |
| 20260505122408 | 68 | 248 | 10.0 | 12.0 | 0.00 | 0.00 | 0.00 | 77 | 1011.0 |
| 20260505121908 | 67 | 248 | 10.0 | 10.0 | 0.00 | 0.00 | 0.00 | 76 | 1011.0 |
| 20260505121412 | 67 | 225 | 11.0 | 12.0 | 0.00 | 0.00 | 0.00 | 79 | 1011.0 |
| 20260505120909 | 67 | 248 | 12.0 | 13.0 | 0.00 | 0.00 | 0.00 | 78 | 1011.0 |
| 20260505120409 | 67 | 248 | 8.0 | 8.0 | 0.00 | 0.00 | 0.00 | 79 | 1011.0 |
| 20260505115910 | 67 | 248 | 7.0 | 8.0 | 0.00 | 0.00 | 0.00 | 78 | 1012.0 |
| 20260505115408 | 67 | 292 | 10.0 | 11.0 | 0.00 | 0.00 | 0.00 | 78 | 1012.0 |
| 20260505114910 | 67 | 292 | 13.0 | 15.0 | 0.00 | 0.00 | 0.00 | 78 | 1012.0 |
| 20260505114409 | 68 | 202 | 11.0 | 13.0 | 0.00 | 0.00 | 0.00 | 78 | 1012.0 |
| 20260505113909 | 67 | 248 | 8.0 | 10.0 | 0.00 | 0.00 | 0.00 | 77 | 1012.0 |
| 20260505113408 | 67 | 248 | 9.0 | 11.0 | 0.00 | 0.00 | 0.00 | 78 | 1012.0 |
| 20260505112908 | 67 | 225 | 11.0 | 13.0 | 0.00 | 0.00 | 0.00 | 77 | 1012.0 |
| 20260505112408 | 67 | 248 | 9.0 | 10.0 | 0.00 | 0.00 | 0.00 | 79 | 1012.0 |
| 20260505111908 | 67 | 292 | 9.0 | 10.0 | 0.00 | 0.00 | 0.00 | 78 | 1012.0 |
| 20260505111409 | 67 | 248 | 10.0 | 11.0 | 0.00 | 0.00 | 0.00 | 78 | 1012.0 |
| 20260505110909 | 67 | 248 | 9.0 | 9.0 | 0.00 | 0.00 | 0.00 | 78 | 1012.0 |
| 20260505110409 | 67 | 225 | 6.0 | 6.0 | 0.00 | 0.00 | 0.00 | 78 | 1012.0 |
| 20260505101908 | 67 | 225 | 10.0 | 12.0 | 0.00 | 0.00 | 0.00 | 76 | 1012.0 |
| 20260505101408 | 68 | 248 | 6.0 | 6.0 | 0.00 | 0.00 | 0.00 | 76 | 1012.0 |
| 20260505100909 | 68 | 248 | 9.0 | 11.0 | 0.00 | 0.00 | 0.00 | 73 | 1012.0 |
| 20260505100410 | 68 | 202 | 9.0 | 12.0 | 0.00 | 0.00 | 0.00 | 73 | 1012.0 |
| 20260505095909 | 68 | 248 | 9.0 | 10.0 | 0.00 | 0.00 | 0.00 | 68 | 1012.0 |
| 20260505095411 | 68 | 270 | 4.0 | 5.0 | 0.00 | 0.00 | 0.00 | 64 | 1012.0 |
| 20260505094909 | 68 | 248 | 6.0 | 7.0 | 0.00 | 0.00 | 0.00 | 69 | 1012.0 |
| 20260505094408 | 68 | 225 | 5.0 | 5.0 | 0.00 | 0.00 | 0.00 | 70 | 1012.0 |
| 20260505093909 | 68 | 225 | 9.0 | 10.0 | 0.00 | 0.00 | 0.00 | 68 | 1012.0 |
| 20260505093413 | 68 | 248 | 9.0 | 10.0 | 0.00 | 0.00 | 0.00 | 63 | 1012.0 |
| 20260505092910 | 68 | 225 | 7.0 | 7.0 | 0.00 | 0.00 | 0.00 | 61 | 1012.0 |
| 20260505092408 | 68 | 225 | 8.0 | 8.0 | 0.00 | 0.00 | 0.00 | 62 | 1012.0 |
| 20260505091908 | 68 | 270 | 5.0 | 5.0 | 0.00 | 0.00 | 0.00 | 61 | 1012.0 |
| 20260505091408 | 68 | 225 | 7.0 | 8.0 | 0.00 | 0.00 | 0.00 | 57 | 1012.0 |
| 20260505090909 | 68 | 248 | 5.0 | 5.0 | 0.00 | 0.00 | 0.00 | 62 | 1012.0 |
| 20260505090408 | 68 | 248 | 7.0 | 8.0 | 0.00 | 0.00 | 0.00 | 58 | 1012.0 |
| 20260505085908 | 68 | 248 | 7.0 | 7.0 | 0.00 | 0.00 | 0.00 | 57 | 1012.0 |
| 20260505085409 | 69 | 270 | 5.0 | 5.0 | 0.00 | 0.00 | 0.00 | 57 | 1012.0 |
| 20260505084908 | 69 | 248 | 5.0 | 5.0 | 0.00 | 0.00 | 0.00 | 55 | 1012.0 |
| 20260505083945 | 70 | 315 | 6.0 | 6.0 | 0.00 | 0.00 | 0.00 | 57 | 1012.0 |
| 20260505083408 | 70 | 248 | 6.0 | 6.0 | 0.00 | 0.00 | 0.00 | 47 | 1012.0 |
| 20260505082908 | 70 | 248 | 2.0 | 2.0 | 0.00 | 0.00 | 0.00 | 49 | 1012.0 |
| 20260505082408 | 69 | 270 | 2.0 | 2.0 | 0.00 | 0.00 | 0.00 | 54 | 1012.0 |
| 20260505081909 | 69 | 202 | 1.0 | 1.0 | 0.00 | 0.00 | 0.00 | 58 | 1012.0 |
| 20260505081412 | 68 | 270 | 5.0 | 5.0 | 0.00 | 0.00 | 0.00 | 60 | 1012.0 |
| 20260505080909 | 69 | 202 | 6.0 | 6.0 | 0.00 | 0.00 | 0.00 | 61 | 1012.0 |
| 20260505080408 | 69 | 248 | 2.0 | 2.0 | 0.00 | 0.00 | 0.00 | 62 | 1012.0 |
| 20260505075908 | 69 | 248 | 2.0 | 2.0 | 0.00 | 0.00 | 0.00 | 61 | 1012.0 |
| 20260505075408 | 69 | 248 | 5.0 | 5.0 | 0.00 | 0.00 | 0.00 | 60 | 1012.0 |
| 20260505074909 | 69 | 248 | 0.0 | 0.0 | 0.00 | 0.00 | 0.00 | 65 | 1012.0 |
| 20260505074408 | 69 | 202 | 5.0 | 5.0 | 0.00 | 0.00 | 0.00 | 65 | 1012.0 |
| 20260505073908 | 70 | 180 | 3.0 | 3.0 | 0.00 | 0.00 | 0.00 | 64 | 1012.0 |
| 20260505073408 | 71 | 292 | 3.0 | 3.0 | 0.00 | 0.00 | 0.00 | 59 | 1012.0 |
| 20260505072908 | 71 | 248 | 1.0 | 1.0 | 0.00 | 0.00 | 0.00 | 63 | 1012.0 |
| 20260505072408 | 71 | 315 | 0.0 | 0.0 | 0.00 | 0.00 | 0.00 | 59 | 1012.0 |
| 20260505071909 | 70 | 270 | 0.0 | 0.0 | 0.00 | 0.00 | 0.00 | 61 | 1012.0 |
| 20260505071410 | 70 | 158 | 0.0 | 0.0 | 0.00 | 0.00 | 0.00 | 62 | 1012.0 |
| 20260505070908 | 69 | 248 | 2.0 | 2.0 | 0.00 | 0.00 | 0.00 | 62 | 1012.0 |
| 20260505070408 | 69 | 22 | 0.0 | 0.0 | 0.00 | 0.00 | 0.00 | 62 | 1012.0 |
| 20260505065908 | 68 | 315 | 3.0 | 4.0 | 0.00 | 0.00 | 0.00 | 63 | 1012.0 |